Kezdőlap
METAR-TAF:

METAR-TAF

Repülőterek :

Algona, Iowa, Amerikai Egyesült Államok

földrajzi szélesség: 43-05N, földrajzi hosszúság: 094-16W, magasság: 372 m

Jelenlegi meteorológiai megfigyelések

A jelentés 33 perccel ezelõtt készült, 17:35 UTC
Észak-északnyugati szél 8 kt
Hőmérséklet 22°C
Páratartalom 100%
Légköri nyomás 1016 hPa
Látótávolság: 16.1 km
Borult 1400 lábon

METAR: KAXA 131735Z AUTO 34008KT 10SM OVC014 22/22 A2999 RMK A01

Idő: 13:08 (18:08 UTC)


TAF: hiányzik

Meteorológiai megfigyelések és előrejelzések több, mint 4000 repülőtéren (METAR és TAF jelentéseket).

A térképen piros és sárga pontok jelzik az elérhető meteorológiai állomásokat.

Mozgassa az egeret a pont fölött, hogy megjelenjen az állomás neve.

Azután kattintson az időjárási megfigyelések és előrejelzések megtekintéséhez.

A térkép megváltoztatása: kattintson a fekete keresztel jelölt zöld gombra ráközelítéshez, a vonallal jelölt zöld gombra távolításhoz, vagy a zöld nyilakra a szomszédos térképek eléréséhez.


METAR-TAF: